Wind_Speed
6 6 7 6 7 7 8 7 7 7 8 9 9 9 10 10 10 9 8 8 7 7 7 6 5 5 6 5 5 5 4 4 3 3 3 2 2 2 1 1 1 1 0
6 6 6 6 7 8 8 7 7 7 7 7 8 9 9 9 8 9 9 9 9 7 6 5 5 4 4 5 5 4 4 4 4 3 3 2 2 1 1 1 1 1 1
6 6 6 7 7 7 7 7 7 7 7 7 7 7 7 7 7 8 7 7 7 7 6 5 4 3 4 5 4 4 3 3 3 3 2 1 1 0 0 0 1 1 0
7 6 6 6 6 7 7 7 7 7 7 7 7 7 7 7 7 7 7 7 6 5 5 5 4 4 4 4 4 4 3 3 2 1 1 1 0 0 1 1 1 1 1
7 7 6 6 7 7 7 7 7 7 7 7 7 7 7 6 6 6 6 6 6 5 4 4 3 4 4 4 4 3 3 3 2 1 0 0 0 1 2 2 2 2 2
8 8 7 6 7 7 7 7 7 7 7 7 7 7 7 7 7 7 7 6 5 5 4 3 3 4 4 3 4 3 3 2 1 1 1 1 1 1 2 2 3 3 4
8 8 7 7 8 7 7 7 7 7 7 7 7 7 7 7 7 7 6 5 5 5 5 4 4 4 4 3 3 3 3 2 2 2 1 1 2 2 3 3 3 4 4
7 7 8 8 8 8 7 7 7 7 7 7 7 7 7 6 6 6 5 5 4 4 4 4 4 4 4 4 3 3 3 2 2 2 2 2 3 3 3 3 3 4 5
7 7 8 8 9 8 8 7 7 7 7 8 7 7 6 5 5 5 4 4 4 4 4 4 4 5 4 3 2 2 2 2 1 2 2 2 2 3 3 3 4 5 5
7 7 8 8 8 8 8 8 7 7 7 7 7 7 6 5 5 4 3 3 4 4 3 2 3 3 3 3 2 2 2 2 2 2 2 2 3 3 4 4 5 5 5
7 7 7 7 8 8 8 8 7 7 7 7 7 7 6 5 4 2 3 4 4 3 2 3 3 2 2 2 2 2 2 2 3 3 3 2 3 3 4 5 5 5 5
6 7 7 7 7 7 7 7 6 6 6 6 6 5 5 4 2 2 3 4 4 3 3 3 3 2 1 2 2 1 2 3 3 4 3 3 4 4 4 4 5 5 5
6 6 6 6 6 6 6 6 6 5 5 5 4 4 4 3 2 2 3 4 3 4 3 3 2 1 1 2 2 2 2 2 3 4 4 4 4 4 4 5 5 5 6
6 6 6 6 6 6 5 5 4 4 4 4 3 3 3 2 2 2 3 4 4 3 3 3 2 2 2 2 3 3 3 3 3 3 4 4 4 5 5 5 6 6 7
6 6 6 5 5 5 5 4 3 3 3 3 3 3 3 2 2 2 3 3 3 3 3 3 3 4 3 4 3 3 3 4 4 4 4 4 4 5 6 6 7 7 7
5 6 5 5 5 5 4 3 3 3 3 3 3 3 2 2 1 1 2 3 3 3 3 3 4 4 4 4 4 4 4 4 5 5 5 5 6 6 6 7 8 8 8
4 5 4 4 4 4 4 4 3 3 3 2 2 2 1 1 0 0 1 2 3 3 3 3 3 4 4 4 4 5 5 5 5 6 6 5 6 7 7 7 8 8 9
3 3 3 3 4 4 4 4 3 3 3 2 2 1 0 1 1 0 1 2 2 3 3 3 4 3 4 4 5 5 6 7 7 7 7 7 7 8 8 9 9 9 10
2 2 3 3 3 4 3 3 3 3 2 2 2 2 1 1 2 2 2 2 2 3 3 4 4 4 5 5 6 6 7 7 8 8 8 8 9 9 10 10 11 11 11
2 2 2 2 2 3 2 2 2 2 2 2 2 3 3 2 3 3 3 3 3 3 4 5 5 5 5 6 6 7 7 8 8 9 9 10 10 11 11 11 12 12 13
3 2 1 2 2 2 2 2 2 2 2 2 3 3 3 3 4 3 3 3 3 4 4 4 4 5 6 6 7 8 9 9 10 10 11 11 12 12 12 12 13 13 13
2 2 0 0 0 1 1 2 2 3 3 3 3 3 3 3 4 4 3 4 4 4 4 5 5 6 6 7 8 8 9 10 10 11 11 11 12 13 13 12 13 13 13
2 2 2 1 1 1 1 2 3 3 3 3 3 3 3 3 4 4 4 4 4 4 5 5 6 6 6 7 8 9 9 10 11 12 12 12 12 13 14 13 13 14 14
4 3 3 3 3 2 2 3 3 4 4 4 4 4 4 4 4 5 5 5 5 5 5 6 6 6 7 8 8 9 10 10 11 11 12 13 13 14 14 15 15 15 15
4 4 4 4 4 4 4 4 4 5 6 6 6 6 5 5 5 6 6 6 6 6 7 7 7 8 9 9 9 10 10 11 11 12 13 14 14 15 14 14 14 15 16
5 5 5 5 4 4 5 5 6 6 6 7 7 7 7 7 7 7 8 8 8 8 8 9 9 9 10 11 11 11 11 11 12 13 14 14 14 14 14 15 15 15 15
Wind_Direction
104 115 124 131 142 146 145 143 140 135 131 128 133 130 126 127 133 138 138 138 136 136 138 142 147 150 145 141 138 140 139 136 127 128 120 114 93 70 46 35 49 78 149
111 119 124 128 137 140 145 146 147 142 137 130 134 137 132 130 133 134 136 142 142 139 144 153 154 155 148 139 141 143 138 133 138 129 110 93 79 56 33 33 58 57 55
112 122 129 134 137 140 142 143 150 149 145 138 136 138 137 138 135 139 144 145 146 148 152 152 155 154 146 148 147 146 142 139 148 143 118 82 59 352 333 336 8 17 329
104 120 130 135 142 141 147 149 156 154 150 147 143 141 140 143 144 145 153 154 155 157 160 155 160 164 156 153 153 150 147 145 145 138 148 127 52 290 259 277 293 277 250
98 109 117 132 143 144 144 148 150 152 150 148 145 147 150 153 154 154 154 155 157 159 164 166 174 178 162 163 163 160 162 163 161 161 247 263 305 299 276 286 277 271 256
95 103 108 117 131 136 137 143 144 145 145 149 147 147 150 155 155 157 156 160 167 166 167 171 181 194 180 174 172 176 179 172 174 196 286 265 253 266 276 278 273 271 270
91 100 103 113 125 129 131 136 137 136 141 143 141 140 143 146 156 157 160 166 170 174 173 180 187 202 200 190 187 192 199 195 214 235 245 258 250 266 283 277 283 281 271
91 95 107 113 120 122 127 135 136 138 141 142 143 141 141 143 146 148 155 158 164 178 183 190 203 205 188 181 185 201 206 212 208 229 247 252 253 267 279 280 279 282 279
93 99 108 113 115 114 120 126 130 134 137 139 140 141 143 146 148 152 149 149 155 163 168 184 203 190 179 170 180 193 207 205 216 234 251 254 252 260 273 274 283 287 299
94 100 102 103 109 114 117 121 126 130 132 136 139 141 144 151 152 151 153 160 158 155 163 162 161 171 164 157 183 204 212 216 228 250 259 263 264 265 271 271 278 280 287
101 102 101 101 104 111 116 121 121 120 124 128 134 137 141 144 143 161 177 180 182 178 169 151 138 140 151 167 182 205 217 227 242 260 266 278 290 282 275 278 280 281 285
102 105 106 106 110 111 113 115 119 121 123 124 126 134 136 137 147 183 200 198 189 181 167 163 138 161 174 193 222 252 253 255 253 257 263 275 285 292 289 287 287 287 287
94 101 104 105 109 115 113 112 115 118 120 117 119 122 129 133 135 165 181 190 191 184 180 178 180 195 209 231 246 250 261 267 267 265 270 273 284 293 294 298 300 297 292
94 100 105 104 105 106 109 108 109 111 111 112 115 117 120 122 137 143 169 173 183 198 209 208 223 236 237 243 244 246 261 272 278 280 277 278 282 289 291 299 304 300 295
97 102 105 108 107 107 109 111 109 113 116 122 130 129 130 135 147 152 153 171 185 206 226 232 241 251 256 252 249 252 264 279 282 287 286 285 280 285 281 287 293 293 291
104 106 102 100 103 103 99 102 96 97 113 122 125 132 134 139 138 155 174 189 196 217 238 246 247 253 261 258 255 261 270 282 284 288 289 285 288 286 278 282 287 287 290
108 109 105 101 99 94 85 91 91 84 91 95 95 108 116 108 84 152 195 206 214 229 248 248 248 256 259 264 267 271 272 276 287 291 290 289 290 288 283 285 289 290 293
104 103 96 95 90 88 87 91 90 84 78 71 55 44 316 301 333 313 256 247 249 248 248 253 256 257 263 272 275 277 279 281 289 294 297 297 296 294 289 288 290 292 293
97 97 96 92 88 84 83 83 76 63 52 32 19 358 340 302 298 306 307 287 261 257 259 263 263 264 267 272 278 282 285 286 291 295 296 295 294 292 290 291 293 292 292
79 98 102 92 83 74 74 64 50 39 33 25 17 6 0 350 332 314 309 299 279 270 269 274 270 264 270 277 281 282 286 290 293 297 297 294 293 293 291 291 293 292 291
59 76 104 98 80 72 61 35 26 23 20 14 4 357 356 354 348 332 314 313 303 287 279 279 278 276 277 280 284 284 286 290 293 296 296 295 295 295 294 294 294 293 292
25 25 16 170 110 72 39 10 5 2 359 356 353 352 356 357 353 342 325 316 306 299 292 286 286 285 282 281 283 286 289 292 294 295 296 293 294 296 297 297 297 295 293
350 354 347 309 309 340 349 354 352 349 345 336 339 347 345 342 344 343 334 326 317 300 290 284 286 288 287 288 285 286 289 291 292 295 296 295 295 297 296 295 295 295 296
320 319 317 316 293 288 303 319 329 336 332 325 324 325 324 328 334 335 326 319 314 306 297 293 289 289 290 291 287 287 287 288 292 293 295 297 296 298 298 297 297 294 293
315 317 322 323 299 280 287 301 314 323 322 316 312 314 315 315 317 322 319 312 308 303 296 296 292 286 289 293 292 293 289 288 293 296 297 297 295 297 299 299 298 296 294
315 316 319 321 307 288 288 295 304 312 318 316 313 313 315 316 315 315 314 311 307 302 296 292 290 289 290 291 291 293 293 293 295 296 296 297 295 296 300 300 299 299 298
Height
5884 5884 5884 5884 5884 5885 5886 5886 5887 5887 5888 5887 5888 5889 5889 5889 5890 5891 5892 5893 5893 5893 5895 5896 5896 5897 5897 5898 5898 5899 5900 5900 5901 5902 5902 5902 5902 5902 5902 5902 5902 5902 5901
5885 5884 5885 5885 5885 5885 5886 5886 5887 5888 5888 5888 5889 5889 5890 5891 5892 5892 5893 5893 5894 5895 5896 5896 5897 5897 5898 5898 5899 5899 5900 5901 5901 5902 5902 5902 5902 5902 5902 5902 5902 5902 5902
5885 5885 5885 5885 5886 5886 5886 5887 5887 5888 5888 5889 5890 5890 5891 5892 5893 5893 5894 5894 5895 5896 5897 5897 5898 5898 5898 5899 5899 5900 5901 5902 5902 5902 5902 5902 5902 5902 5902 5902 5902 5902 5902
5886 5885 5885 5885 5886 5886 5886 5887 5887 5888 5888 5889 5890 5891 5892 5893 5893 5894 5895 5895 5896 5897 5897 5898 5898 5898 5899 5899 5900 5901 5901 5902 5902 5903 5902 5902 5902 5902 5902 5902 5902 5902 5902
5887 5886 5885 5885 5885 5886 5886 5886 5887 5888 5889 5889 5890 5891 5892 5893 5894 5894 5895 5896 5897 5897 5898 5898 5899 5899 5900 5900 5901 5901 5902 5902 5902 5902 5902 5902 5902 5902 5902 5902 5902 5902 5901
5888 5887 5886 5884 5885 5886 5886 5887 5887 5888 5888 5889 5890 5892 5893 5893 5894 5895 5896 5897 5897 5897 5898 5898 5899 5899 5900 5900 5901 5902 5902 5902 5902 5902 5902 5902 5902 5902 5902 5902 5902 5901 5901
5889 5888 5887 5885 5886 5887 5887 5887 5888 5888 5889 5890 5891 5892 5893 5894 5894 5895 5896 5897 5897 5897 5898 5899 5899 5900 5900 5901 5901 5902 5902 5902 5902 5902 5902 5902 5902 5902 5902 5902 5901 5901 5901
5891 5890 5889 5888 5888 5888 5889 5889 5889 5889 5889 5890 5891 5892 5893 5894 5895 5896 5896 5897 5897 5897 5898 5899 5899 5900 5900 5901 5901 5901 5902 5902 5902 5902 5902 5902 5902 5902 5902 5901 5901 5901 5900
5893 5892 5891 5891 5890 5890 5890 5891 5890 5891 5891 5891 5892 5893 5894 5895 5895 5896 5896 5897 5897 5898 5898 5899 5899 5900 5900 5901 5901 5902 5902 5902 5902 5902 5902 5902 5902 5901 5901 5901 5901 5900 5900
5895 5894 5894 5893 5893 5892 5892 5892 5892 5892 5892 5893 5893 5894 5895 5895 5896 5896 5897 5897 5898 5898 5898 5899 5899 5900 5900 5901 5902 5902 5902 5902 5902 5902 5902 5901 5901 5901 5901 5901 5900 5900 5900
5897 5896 5896 5895 5895 5895 5894 5894 5894 5894 5894 5894 5894 5895 5896 5896 5896 5896 5896 5897 5898 5898 5899 5899 5900 5900 5900 5901 5901 5902 5902 5902 5902 5902 5901 5901 5901 5901 5900 5900 5900 5899 5899
5898 5898 5898 5897 5897 5897 5896 5896 5896 5895 5896 5896 5897 5897 5897 5897 5897 5896 5895 5897 5898 5899 5899 5900 5900 5900 5901 5901 5901 5902 5902 5901 5901 5901 5901 5901 5901 5900 5900 5900 5899 5899 5898
5900 5900 5900 5899 5899 5898 5898 5898 5897 5897 5897 5898 5898 5898 5898 5898 5897 5896 5895 5896 5898 5899 5899 5900 5900 5900 5901 5901 5901 5901 5901 5901 5901 5901 5900 5900 5900 5900 5900 5899 5899 5898 5897
5902 5901 5901 5901 5901 5900 5900 5900 5899 5899 5899 5899 5899 5899 5899 5899 5898 5897 5896 5897 5898 5899 5899 5900 5900 5900 5901 5901 5901 5901 5901 5901 5900 5900 5900 5900 5900 5899 5899 5899 5898 5898 5897
5903 5903 5903 5903 5902 5902 5901 5901 5901 5901 5901 5900 5900 5900 5900 5900 5899 5898 5898 5898 5898 5899 5899 5899 5900 5900 5900 5901 5901 5901 5901 5900 5900 5899 5899 5899 5899 5898 5898 5898 5897 5897 5896
5905 5905 5904 5904 5904 5903 5903 5902 5902 5902 5901 5901 5901 5901 5900 5900 5899 5899 5898 5898 5898 5898 5899 5899 5899 5900 5900 5900 5900 5900 5900 5900 5899 5899 5899 5898 5898 5897 5897 5897 5896 5896 5895
5906 5906 5906 5905 5905 5905 5904 5903 5903 5903 5902 5902 5902 5901 5901 5900 5899 5898 5898 5898 5898 5898 5898 5899 5899 5899 5899 5899 5899 5900 5900 5899 5899 5898 5898 5897 5897 5896 5896 5896 5895 5894 5893
5908 5907 5907 5906 5906 5906 5905 5905 5904 5904 5903 5903 5902 5902 5901 5901 5900 5899 5898 5898 5898 5898 5898 5898 5898 5898 5898 5899 5899 5899 5899 5898 5898 5898 5897 5896 5896 5895 5894 5894 5893 5893 5892
5909 5908 5908 5907 5907 5907 5906 5906 5905 5905 5904 5904 5903 5902 5901 5901 5900 5899 5899 5898 5897 5897 5898 5898 5898 5898 5898 5898 5898 5898 5897 5897 5897 5897 5896 5895 5894 5894 5893 5892 5891 5891 5890
5909 5909 5909 5908 5908 5907 5907 5906 5906 5905 5905 5904 5903 5902 5902 5901 5900 5900 5899 5898 5897 5897 5897 5897 5897 5897 5897 5897 5897 5897 5896 5896 5896 5895 5894 5894 5893 5892 5891 5890 5889 5888 5887
5910 5910 5910 5909 5909 5908 5908 5907 5906 5906 5905 5904 5903 5902 5902 5901 5900 5900 5899 5898 5897 5897 5897 5896 5896 5896 5896 5896 5896 5896 5895 5894 5894 5893 5892 5892 5891 5890 5889 5888 5887 5886 5885
5911 5910 5910 5910 5909 5909 5908 5907 5907 5906 5905 5904 5903 5903 5902 5901 5900 5899 5899 5898 5897 5897 5896 5896 5895 5895 5895 5895 5895 5894 5894 5893 5892 5891 5890 5890 5889 5888 5887 5885 5884 5883 5882
5911 5911 5910 5910 5909 5909 5908 5908 5907 5906 5905 5904 5903 5902 5902 5901 5900 5899 5898 5898 5897 5896 5896 5895 5894 5894 5894 5893 5893 5892 5892 5891 5890 5889 5888 5887 5886 5885 5884 5883 5881 5880 5879
5912 5911 5910 5910 5909 5908 5908 5908 5907 5906 5905 5904 5903 5902 5901 5900 5900 5899 5898 5897 5896 5895 5894 5894 5893 5893 5892 5891 5891 5890 5889 5889 5888 5887 5886 5884 5883 5882 5881 5880 5878 5877 5876
5911 5910 5910 5909 5908 5908 5907 5907 5906 5906 5905 5903 5903 5902 5900 5899 5899 5898 5897 5896 5895 5894 5893 5892 5892 5891 5891 5890 5889 5888 5887 5886 5885 5884 5883 5882 5881 5879 5878 5876 5875 5874 5872
5911 5910 5909 5908 5907 5907 5906 5906 5905 5905 5904 5903 5902 5901 5900 5898 5897 5896 5896 5895 5894 5893 5892 5891 5890 5889 5889 5888 5887 5886 5885 5884 5883 5881 5880 5879 5878 5876 5875 5873 5872 5870 5869